Location: Albany
(35.0170°S, 117.8920°E)
Time: 17:59:18
(UTC+08:00)

Courier 1B Rocket - Visible Passes

Search period start: 24 January 2021 00:00
Search period end: 03 February 2021 00:00
Orbit: 920 x 1202 km, 28.2° (Epoch: 23 January)

Date Brightness Start Highest point End Pass type
(mag) Time Alt. Az. Time Alt. Az. Time Alt. Az.
24 Jan 5.5 20:02:40 10° WNW 20:09:29 48° N 20:15:26 12° ENE visible
24 Jan 5.6 21:56:14 10° W 22:01:47 40° NNW 22:01:47 40° NNW visible
25 Jan 5.4 20:54:56 10° WNW 21:01:38 47° N 21:04:23 31° NE visible
25 Jan 6.9 22:48:56 10° WNW 22:50:44 17° WNW 22:50:44 17° WNW visible
26 Jan 5.5 19:53:39 10° WNW 20:00:37 50° N 20:06:57 11° ENE visible
26 Jan 5.8 21:47:28 10° W 21:53:18 36° NNW 21:53:18 36° NNW visible
27 Jan 5.6 20:46:04 10° W 20:52:46 43° NNW 20:55:52 27° NE visible
27 Jan 7.0 22:40:33 10° WNW 22:42:13 15° WNW 22:42:13 15° WNW visible
28 Jan 5.7 19:44:42 10° WNW 19:51:45 48° N 19:58:18 10° ENE visible
28 Jan 6.1 21:38:49 10° WNW 21:44:45 29° NNW 21:44:46 29° NNW visible
29 Jan 5.9 20:37:16 10° W 20:43:50 37° NNW 20:47:20 23° NNE visible
29 Jan 7.2 22:32:35 10° WNW 22:33:41 13° NW 22:33:41 13° NW visible
30 Jan 5.9 19:35:49 10° W 19:42:50 44° NNW 19:49:24 10° ENE visible
30 Jan 6.4 21:30:22 10° WNW 21:35:43 23° NNW 21:36:16 23° NNW visible
31 Jan 6.3 20:28:34 10° W 20:34:51 30° NNW 20:38:52 18° NNE visible
01 Feb 6.8 21:22:20 10° WNW 21:26:39 17° NNW 21:27:51 16° NNW visible
02 Feb 6.7 20:20:06 10° WNW 20:25:47 24° NNW 20:30:30 12° NNE visible
